Regional Weather Roundup
Issued by NWS Jackson, KY

Home | Current Version | Previous Version | Text Only | Print | Product List | Glossary On
Versions: 1 2 3 4 5 6 7 8 9 10 11 12 13 14 15 16 17 18 19 20 21 22 23 24 25 26 27 28 29 30 31 32 33 34 35 36 37 38 39 40 41 42 43 44 45 46 47 48 49 50
000
ASUS43 KJKL 301019
RWRJKL

EAST KENTUCKY HOURLY WEATHER ROUNDUP
NATIONAL WEATHER SERVICE JACKSON KY
600 AM EDT WED JUL 30 2014

NOTE: "FAIR" INDICATES FEW OR NO CLOUDS BELOW 12,000 FEET WITH
NO SIGNIFICANT WEATHER AND/OR OBSTRUCTIONS TO VISIBILITY.

* THESE REPORTS ARE NOT UNDER NWS QUALITY CONTROL AND MAY NOT
  REPORT WEATHER SUCH AS PRECIPITATION AND FOG.

KYZ079-080-083-085-087-088-110-112-115-119-120-301100
...EASTERN KENTUCKY...

CITY           SKY/WX    TMP DP  RH WIND       PRES   REMARKS
JACKSON        CLEAR     55  52  89 CALM      30.10S FOG
LONDON         CLEAR     54  51  90 CALM      30.12R
SOMERSET*      MOCLDY    54  54 100 CALM      30.12S FOG
MONTICELLO*    CLEAR     53  53 100 CALM      30.12S
MIDDLESBORO*   FOG       53  53 100 CALM      30.14R VSB 3/4
HARLAN APT*    CLOUDY    52  52 100 MISG      30.13S VSB<1/4
HAZARD APT*    MOSUNNY   54  54 100 CALM      30.11  FOG
BLACK MTN*       N/A     50  46  87 NW3         N/A
PIKEVILLE APT* FOG       54  52  94 S5        30.11S VSB 0
BIG SANDY*     SUNNY     54  54  99 CALM      30.10S
MOREHEAD APT*  CLOUDY    55  54  94 CALM      30.11S FOG
ASHLAND*       PTCLDY    55  52  88 CALM      30.07R
$$

KYZ035-036-041-042-044-050-067-078-099-301100
...CENTRAL KENTUCKY...

CITY           SKY/WX    TMP DP  RH WIND       PRES   REMARKS
MT STERLING*   CLOUDY    57  55  94 SW5       30.11R
FLEMING/MASON* CLEAR     56  53  91 S6        30.09S
DANVILLE*      PTCLDY    54  54 100 SW5       30.11R
RICHMOND*      PTCLDY    57  52  82 CALM      30.09S
LEXINGTON      MOCLDY    58  54  86 S6        30.09S
FRANKFORT      MOCLDY    58  54  86 CALM      30.07S
$$

KYZ091>093-OHZ055-061-077-WVZ005-015-034-035-042-301100
...SOUTHERN OHIO/WEST VIRGINIA...

CITY           SKY/WX    TMP DP  RH WIND       PRES   REMARKS
COVINGTON      PTCLDY    59  56  89 S3        30.06R
COLUMBUS       CLEAR     59  53  80 S5        30.03S
DAYTON         CLEAR     58  55  90 SW3       30.05R
WILMINGTON     CLEAR     54  52  93 SW5       30.05R
HUNTINGTON     CLEAR     55  54  96 SW3       30.08R
CHARLESTON     FOG       54  54 100 CALM      30.09R VSB 1
PINEVILLE*     FOG       57  57 100 MISG      30.17S VSB 1/4
BECKLEY        CLEAR     50  48  93 CALM      30.13R FOG
BLUEFIELD      PTCLDY    54  49  83 CALM      30.15R
$$

VAZ002-007-008-TNZ017-027-036-066-071-301100
...SOUTHWEST VIRGINIA/EAST TENNESSEE...

CITY           SKY/WX    TMP DP  RH WIND       PRES   REMARKS
WISE*          CLEAR     50  50 100 CALM      30.16R FOG
JONESVILLE*    FOG       48  48 100 CALM      30.15R VSB 1/2
ABINGDON*      CLEAR     52  51  97 CALM      30.14R
BRISTOL        FOG       54  52  93 CALM      30.13R VSB 1/4
KNOXVILLE      CLEAR     55  53  93 CALM      30.09
OAK RIDGE      CLEAR     55  53  93 CALM      30.12R
CROSSVILLE     CLEAR     52  50  93 CALM      30.13S
NASHVILLE      CLEAR     58  56  93 CALM      30.11R
$$

...KEY TO REMARKS...
VSB - VISIBILITY IN MILES
WCI - WIND CHILL INDEX
HX  - HEAT INDEX

$$


USA.gov is the U.S. government's official web portal to all federal, state and local government web resources and services.